Simultaneous Nadir Overpasses (SNOs) Predictions

Prediction of SNOs between GOES-17 and METOP-B Satellite Orbit:

Table of predicted SNOs for the next 14.0 days since TLE Epoch: 4/30/2022
Index Date Time (GOES-17) GOES-17 Lat,Lon METOP-B Lat,Lon Distance(km) Time Diff (sec)
1 04/30/2022 18:49:51 0.05,-137.20 0.69,-140.15 336.24 80
2 05/01/2022 18:31:51 0.05,-137.20 -0.44,-135.16 233.14 80
3 05/03/2022 06:50:51 -0.05,-137.20 -0.62,-139.75 290.88 80
4 05/04/2022 06:27:31 -0.04,-137.19 0.52,-134.76 277.94 80
5 05/05/2022 18:46:22 0.04,-137.19 0.48,-139.32 242.41 80
6 05/06/2022 18:28:22 0.03,-137.18 -0.59,-134.32 326.08 80
7 05/08/2022 06:47:22 -0.03,-137.16 -0.39,-138.92 199.11 80
8 05/09/2022 06:24:02 -0.02,-137.15 0.69,-133.91 369.10 80
9 05/10/2022 18:42:53 0.02,-137.14 0.30,-138.48 152.04 80
10 05/11/2022 18:24:53 0.02,-137.13 -0.79,-133.47 416.00 80
11 05/13/2022 06:41:12 -0.02,-137.10 -0.25,-138.06 109.89 80
